This is the latest recevied weather packets stored in our database for station/object AB4KN. If no packets are shown the sender has not sent any weather packets the latest 10 day(s).
| Time | Temp. | Humidity | Pressure | Rain* | Wind** | Luminosity | Snow |
|---|---|---|---|---|---|---|---|
| 1778164149 | 18.33° C | 89% | 1017 hPa | 0 mm | - | 31 W/m² | - |
| 1778163845 | 18.33° C | 89% | 1017.3 hPa | 0 mm | - | 27 W/m² | - |
| 1778163542 | 18.33° C | 89% | 1017.3 hPa | 0 mm | - | 18 W/m² | - |
| 1778163238 | 18.89° C | 89% | 1017 hPa | 0 mm | - | 41 W/m² | - |
| 1778162935 | 18.89° C | 89% | 1016.9 hPa | 0 mm | - | 53 W/m² | - |
| 1778162632 | 18.89° C | 89% | 1016.6 hPa | 1.78 mm | - | 44 W/m² | - |
| 1778162330 | 18.89° C | 89% | 1016.8 hPa | 1.78 mm | - | 62 W/m² | - |
| 1778162026 | 18.33° C | 89% | 1016.7 hPa | 1.78 mm | - | 73 W/m² | - |
| 1778161724 | 18.33° C | 89% | 1016.8 hPa | 0 mm | - | 48 W/m² | - |
| 1778161420 | 18.33° C | 89% | 1016.9 hPa | 0 mm | - | 32 W/m² | - |
| 1778161116 | 18.33° C | 89% | 1017.1 hPa | 0 mm | - | 19 W/m² | - |
| 1778160811 | 18.33° C | 89% | 1016.8 hPa | 0 mm | - | 39 W/m² | - |
| 1778160510 | 18.33° C | 89% | 1016.7 hPa | 0 mm | - | 25 W/m² | - |
| 1778160206 | 18.33° C | 89% | 1016.8 hPa | 0 mm | - | 32 W/m² | - |
| 1778159904 | 18.33° C | 89% | 1016.6 hPa | 0 mm | - | 42 W/m² | - |
| 1778159600 | 18.89° C | 89% | 1016.5 hPa | 0 mm | - | 57 W/m² | - |
| 1778159297 | 18.89° C | 89% | 1016.6 hPa | 1.27 mm | - | 19 W/m² | - |
| 1778158994 | 18.89° C | 89% | 1016.4 hPa | 3.05 mm | - | 45 W/m² | - |
| 1778158693 | 19.44° C | 89% | 1016.3 hPa | 6.1 mm | - | 14 W/m² | - |
| 1778158390 | 20° C | 89% | 1015.9 hPa | 7.11 mm | - | 4 W/m² | - |
| 1778158087 | 20° C | 89% | 1015.9 hPa | 3.05 mm | - | 16 W/m² | - |
| 1778157783 | 20° C | 89% | 1016.1 hPa | 1.78 mm | - | 6 W/m² | - |
| 1778157482 | 20° C | 89% | 1015.7 hPa | 1.78 mm | - | 8 W/m² | - |
| 1778157179 | 20° C | 89% | 1015.7 hPa | 0 mm | - | 12 W/m² | - |
| 1778156875 | 20° C | 89% | 1015.8 hPa | 0 mm | - | 3 W/m² | - |
* Rain latest hour (hover to see other rain measurements)
** Current wind speed in m/s (hover to see current wind gust speed)